Location: Asheville, NC
(35.6000°N, 82.5500°W)
Time: 05:22:53
(UTC-04:00)

N. Korean satellite - Pass Details

Date: 11 January 2018
Orbit: 458 x 513 km, 97.2° (Epoch: 22 April)

Event Time Altitude Azimuth Distance (km) Brightness Sun altitude
Rises 19:16:56 0° 199° (SSW) 2,597 10.7 -20.0°
Reaches altitude 10° 19:19:28 10° 217° (SW) 1,709 10.0 -20.5°
Maximum altitude 19:22:11 19° 265° (W) 1,223 9.5 -21.0°
Drops below altitude 10° 19:24:53 10° 313° (NW) 1,697 9.8 -21.6°
Sets 19:27:24 0° 331° (NNW) 2,573 10.5 -22.1°
